RH
26 28 32 35 36 37 37 38 38 38 38 39 44 45 48 49 52 49 52 54 56 58 57 56 54 48 48 52 53 45 43 55 58 67 72 72 75 79 88 89 95 85 89 90
24 26 32 33 35 37 38 38 41 40 38 41 45 45 45 44 43 47 52 58 59 61 65 69 66 63 55 56 51 43 47 51 51 52 54 58 61 66 76 88 86 84 94 87
20 21 32 32 34 36 39 40 40 37 39 41 43 43 46 43 43 42 50 59 64 67 66 72 74 69 69 58 53 48 52 55 56 59 56 56 57 59 58 60 71 78 88 91
14 14 27 30 32 36 39 40 37 36 38 44 41 41 43 43 43 43 49 59 64 62 60 63 64 68 73 64 55 58 55 64 70 70 66 63 64 61 57 65 59 61 60 61
13 12 18 26 29 36 38 37 34 33 37 40 41 39 35 41 44 42 46 55 55 60 58 59 54 53 62 70 67 67 68 68 75 76 73 72 64 64 60 63 63 65 61 58
13 13 12 18 25 31 35 36 33 33 34 35 36 39 39 44 40 39 44 49 51 52 56 61 64 63 70 80 78 70 68 71 74 73 81 77 61 51 56 55 54 58 59 57
11 12 13 19 23 33 35 37 38 35 34 35 38 40 41 40 40 40 41 45 49 52 63 67 69 66 68 80 77 74 72 72 81 90 96 86 68 54 56 55 55 53 51 49
13 13 11 19 26 36 33 35 36 36 37 35 41 39 40 42 42 42 42 43 49 53 67 73 73 67 66 69 64 77 78 77 75 74 80 88 74 60 56 56 62 66 60 54
13 11 10 14 25 31 33 36 34 38 42 44 50 46 41 41 42 41 43 44 51 59 66 67 64 64 67 67 64 63 73 64 61 53 82 80 62 61 61 62 64 62 57 56
10 11 9 17 24 25 31 33 37 41 44 45 53 48 44 42 41 45 45 48 56 58 59 55 56 58 63 60 60 59 54 46 51 60 66 69 65 61 62 62 60 60 56 56
10 11 10 10 17 24 31 31 37 40 45 51 55 48 39 40 43 45 45 49 52 51 48 47 52 58 57 58 58 56 55 52 55 57 55 62 58 53 56 55 53 52 49 46
8 10 11 10 15 23 27 30 31 35 40 53 47 41 39 42 46 47 49 49 49 48 49 45 49 50 47 50 50 55 55 53 53 54 56 57 51 51 53 53 48 41 36 32
10 13 13 14 15 19 25 30 32 36 43 50 46 39 42 45 49 48 49 49 49 46 49 42 44 47 42 43 45 46 52 55 54 54 52 50 50 48 45 42 34 28 22 19
12 14 13 12 16 20 27 31 37 38 43 45 45 39 45 47 50 49 47 46 45 49 48 43 40 43 41 45 48 48 54 53 50 50 49 48 43 37 30 22 18 16 17 18
13 13 14 13 16 24 26 29 37 36 33 37 37 41 42 44 46 46 45 48 49 51 50 45 43 41 42 47 48 46 44 42 42 39 34 29 23 19 17 16 17 18 20 21
18 15 17 15 19 28 30 34 36 35 36 39 44 42 42 44 43 45 47 48 52 56 51 47 41 43 44 47 44 42 39 35 32 30 24 20 17 16 17 19 21 23 22 21
22 24 25 19 24 28 36 36 31 35 36 38 40 37 43 44 43 45 48 53 51 53 47 40 43 45 44 43 42 38 36 34 31 23 20 19 18 18 20 20 19 20 19 20
26 30 30 30 29 35 28 30 30 30 34 37 38 39 38 40 42 45 47 52 53 44 40 41 42 42 42 42 42 38 36 32 24 21 20 19 18 16 15 17 18 18 18 17
25 31 37 37 39 34 32 32 33 31 33 36 40 40 46 46 48 46 46 50 49 49 45 40 39 41 43 43 39 36 34 28 24 21 18 17 15 13 12 15 16 16 14 13
26 29 30 42 35 37 29 27 30 35 36 36 42 46 49 48 49 45 44 47 48 45 38 40 42 43 42 39 36 36 29 24 19 16 15 15 14 14 13 14 14 13 15 17
33 30 32 41 35 34 26 27 31 35 30 35 44 45 46 47 40 39 41 48 45 42 41 42 42 40 41 40 38 30 23 16 14 14 15 15 16 14 15 16 17 19 19 18
34 37 39 42 38 30 28 34 32 25 33 42 48 47 46 44 40 39 43 42 39 39 39 39 41 40 39 37 30 22 14 14 15 15 16 16 17 18 19 20 20 18 18 19
42 34 34 36 33 27 25 28 27 35 37 42 47 51 48 42 40 42 43 42 40 38 43 45 43 41 38 28 21 15 14 16 16 17 18 18 20 20 19 17 18 21 23 23
49 46 44 37 30 30 28 26 42 41 43 43 45 46 47 40 43 44 43 41 40 42 45 44 42 38 26 20 15 13 15 17 17 18 18 21 20 18 18 21 23 25 22 21
49 47 44 42 35 30 29 29 31 46 42 44 45 47 44 43 48 49 43 41 41 41 42 41 38 27 20 16 15 14 15 17 20 18 20 21 20 20 22 24 25 24 25 27
49 46 45 43 35 32 29 31 32 38 46 45 46 48 47 47 46 48 42 41 40 41 42 39 29 19 16 16 14 15 17 19 18 21 22 22 24 26 29 31 29 31 33 35